Weather History for 94578 - March, 2014

Change the Weather History Date:

Sunday, March 9, 2014

  Actual Average Record
Temperature  
Mean Temperature 74 °F -  
Max Temperature 80 °F 82 °F - ()
Min Temperature 68 °F 66 °F - ()
Cooling Degree Days 9    
Growing Degree Days 24 (Base 50)    
Moisture  
Dew Point 63 °F    
Average Humidity 67    
Maximum Humidity 88    
Minimum Humidity 46    
Precipitation  
Precipitation 0.08 in 0.17 in - ()
Sea Level Pressure  
Sea Level Pressure 30.08 in    
Wind  
Wind Speed 8 mph ()    
Max Wind Speed 17 mph    
Max Gust Speed -    
Visibility 7.0 miles    
Events Rain    
T = Trace of Precipitation, MM = Missing Value Source: Averaged Metar Reports

Daily Weather History Graph

Daily Weather History Graph

Search for Another Location

Airport or City:

Trip Planner

Search our weather history database for the weather conditions in past years. The results will help you decide how hot, cold, wet, or windy it might be!

Date:

Astronomy

Mar. 09, 2014 Rise Set
Actual Time 5:44 AM AEST 6:11 PM AEST
Civil Twilight 5:21 AM AEST 6:34 PM AEST
Nautical Twilight 4:53 AM AEST 7:01 PM AEST
Astronomical Twilight 4:25 AM AEST 7:29 PM AEST
Moon 12:59 PM AEST (3/9) 11:57 PM AEST (3/9)
Length of Visible Light 13h 13m
Length of Day
12h 26m
First Quarter, 55% of the Moon is Illuminated
Mar 9
First Quarter
Mar 17
Full
Mar 24
Last Quarter
Mar 31
New
Apr 7
First Quarter

Hourly Weather History & Observations

Time (AEST) Temp. Heat Index Dew Point Humidity Pressure Visibility Wind Dir Wind Speed Gust Speed Precip Events Conditions
12:00 AM 70 °F - 63 °F 72% 30.10 in 19 mi ESE 11.5 mph - - Rain Light Rain Showers
12:00 AM 69.8 °F - 62.6 °F 78% 30.09 in 6.2 mi ESE 11.5 mph - N/A Rain Light Rain Showers
12:30 AM 71.6 °F - 62.6 °F 73% 30.06 in 6.2 mi SSE 4.6 mph - N/A   Scattered Clouds
1:00 AM 72 °F - 64 °F 70% 30.08 in - SE 5.8 mph - -  
1:00 AM 71.6 °F - 64.4 °F 78% 30.06 in 6.2 mi SE 5.8 mph - N/A   Scattered Clouds
1:30 AM 69.8 °F - 64.4 °F 83% 30.06 in 6.2 mi SSE 5.8 mph - N/A   Mostly Cloudy
2:00 AM 69.8 °F - 64.4 °F 83% 30.04 in 6.2 mi SSW 5.8 mph - N/A   Mostly Cloudy
2:30 AM 69.8 °F - 64.4 °F 83% 30.04 in 6.2 mi South 3.5 mph - N/A   Partly Cloudy
3:00 AM 73 °F - 63 °F 63% 30.05 in 19 mi ESE 8.1 mph - -   Partly Cloudy
3:00 AM 73.4 °F - 62.6 °F 69% 30.04 in 6.2 mi ESE 8.1 mph - N/A   Partly Cloudy
3:30 AM 73.4 °F - 62.6 °F 69% 30.04 in 6.2 mi ESE 8.1 mph - N/A   Mostly Cloudy
4:00 AM 69 °F - 65 °F 83% 30.06 in - South 8.1 mph - -  
4:00 AM 68.0 °F - 64.4 °F 88% 30.04 in 6.2 mi South 8.1 mph - N/A Rain Light Rain Showers
4:30 AM 69.8 °F - 64.4 °F 83% 30.04 in 6.2 mi SSE 8.1 mph - N/A Rain Light Rain Showers
5:00 AM 69.8 °F - 64.4 °F 83% 30.04 in 6.2 mi SSE 6.9 mph - N/A   Mostly Cloudy
5:30 AM 69.8 °F - 64.4 °F 83% 30.06 in 6.2 mi SSE 6.9 mph - N/A   Scattered Clouds
6:00 AM 69 °F - 64 °F 80% 30.09 in 19 mi South 5.8 mph - -   Partly Cloudy
6:00 AM 69.8 °F - 64.4 °F 83% 30.06 in 6.2 mi South 5.8 mph - N/A   Mostly Cloudy
6:30 AM 69.8 °F - 64.4 °F 83% 30.09 in 6.2 mi South 5.8 mph - N/A   Mostly Cloudy
7:00 AM 74 °F - 64 °F 63% 30.10 in - East 9.2 mph - -  
7:00 AM 73.4 °F - 64.4 °F 73% 30.09 in 6.2 mi East 9.2 mph - N/A   Mostly Cloudy
7:30 AM 75.2 °F - 60.8 °F 61% 30.09 in 6.2 mi East 9.2 mph - N/A   Mostly Cloudy
8:00 AM 75.2 °F - 62.6 °F 65% 30.09 in 5.0 mi East 9.2 mph - N/A Rain Light Rain Showers
8:30 AM 77.0 °F - 64.4 °F 65% 30.09 in 6.2 mi East 10.4 mph - N/A   Mostly Cloudy
9:00 AM 77 °F - 62 °F 51% 30.13 in 9 mi East 10.4 mph - -   Mostly Cloudy
9:00 AM 77.0 °F - 62.6 °F 61% 30.12 in 6.2 mi East 10.4 mph - N/A   Mostly Cloudy
9:30 AM 78.8 °F - 60.8 °F 54% 30.12 in 6.2 mi East 8.1 mph - N/A   Mostly Cloudy
10:00 AM 79 °F - 62 °F 46% 30.12 in - East 10.4 mph - -  
10:00 AM 78.8 °F - 62.6 °F 57% 30.12 in 6.2 mi East 10.4 mph - N/A   Mostly Cloudy
10:30 AM 78.8 °F - 62.6 °F 57% 30.09 in 6.2 mi ESE 11.5 mph - N/A   Mostly Cloudy
11:00 AM 77.0 °F - 64.4 °F 65% 30.09 in 5.6 mi SE 12.7 mph - N/A Rain Light Rain Showers
11:30 AM 78.8 °F - 62.6 °F 57% 30.09 in 6.2 mi ESE 12.7 mph - N/A   Mostly Cloudy
12:00 PM 80 °F - 64 °F 49% 30.10 in 12 mi ENE 17.3 mph - -   Mostly Cloudy
12:00 PM 78.8 °F - 64.4 °F 61% 30.09 in 6.2 mi ENE 17.3 mph - N/A   Mostly Cloudy
12:30 PM 77.0 °F - 60.8 °F 57% 30.06 in 6.2 mi East 13.8 mph - N/A   Mostly Cloudy
1:00 PM 78 °F - 62 °F 48% 30.07 in - East 10.4 mph - -  
1:00 PM 78.8 °F - 62.6 °F 57% 30.06 in 6.2 mi East 10.4 mph - N/A   Mostly Cloudy
1:30 PM 80.6 °F 81.5 °F 60.8 °F 51% 30.04 in 6.2 mi ESE 12.7 mph - N/A   Mostly Cloudy
2:00 PM 77.0 °F - 62.6 °F 61% 30.04 in 3.7 mi ENE 15.0 mph - N/A Rain Light Rain Showers
2:30 PM 73.4 °F - 66.2 °F 78% 30.06 in 5.6 mi East 9.2 mph - N/A   Mostly Cloudy
2:44 PM 71.6 °F - 64.4 °F 78% 30.06 in 1.9 mi ESE 12.7 mph - N/A Rain Rain Showers
3:00 PM 73 °F - 63 °F 64% 30.07 in 4 mi SE 8.1 mph - - Rain Light Rain Showers
3:00 PM 73.4 °F - 62.6 °F 69% 30.06 in 3.7 mi SE 8.1 mph - N/A Rain Light Rain Showers
3:30 PM 73.4 °F - 66.2 °F 78% 30.06 in 5.6 mi ESE 9.2 mph - N/A   Mostly Cloudy
4:00 PM 76 °F - 64 °F 57% 30.06 in - East 9.2 mph - -  
4:00 PM 77.0 °F - 64.4 °F 65% 30.04 in 6.2 mi East 9.2 mph - N/A   Mostly Cloudy
4:30 PM 77.0 °F - 62.6 °F 61% 30.04 in 6.2 mi East 10.4 mph - N/A   Mostly Cloudy
5:00 PM 77.0 °F - 62.6 °F 61% 30.06 in 6.2 mi East 10.4 mph - N/A   Mostly Cloudy
5:30 PM 77.0 °F - 62.6 °F 61% 30.06 in 6.2 mi East 10.4 mph - N/A   Mostly Cloudy
6:00 PM 75 °F - 62 °F 55% 30.08 in 16 mi ESE 9.2 mph - -   Partly Cloudy
6:00 PM 75.2 °F - 62.6 °F 65% 30.06 in 6.2 mi ESE 9.2 mph - N/A   Mostly Cloudy
6:30 PM 75.2 °F - 60.8 °F 61% 30.06 in 6.2 mi ESE 9.2 mph - N/A   Mostly Cloudy
7:00 PM 75 °F - 62 °F 55% 30.09 in - East 8.1 mph - -  
7:00 PM 75.2 °F - 62.6 °F 65% 30.09 in 6.2 mi East 8.1 mph - N/A   Mostly Cloudy
7:30 PM 75.2 °F - 62.6 °F 65% 30.09 in 6.2 mi East 8.1 mph - N/A   Mostly Cloudy
8:00 PM 75.2 °F - 62.6 °F 65% 30.09 in 6.2 mi ESE 8.1 mph - N/A   Mostly Cloudy
8:30 PM 75.2 °F - 62.6 °F 65% 30.09 in 6.2 mi ESE 8.1 mph - N/A   Mostly Cloudy
9:00 PM 74 °F - 62 °F 57% 30.10 in 12 mi ESE 6.9 mph - -   Partly Cloudy
9:00 PM 75.2 °F - 62.6 °F 65% 30.09 in 6.2 mi ESE 6.9 mph - N/A   Mostly Cloudy
9:30 PM 75.2 °F - 62.6 °F 65% 30.09 in 6.2 mi ESE 8.1 mph - N/A   Mostly Cloudy
10:00 PM 74 °F - 63 °F 60% 30.10 in - ESE 8.1 mph - -  
10:00 PM 75.2 °F - 62.6 °F 65% 30.09 in 6.2 mi ESE 8.1 mph - N/A   Mostly Cloudy
10:30 PM 75.2 °F - 62.6 °F 65% 30.09 in 6.2 mi ESE 8.1 mph - N/A   Mostly Cloudy
11:00 PM 75.2 °F - 64.4 °F 69% 30.09 in 6.2 mi East 9.2 mph - N/A   Mostly Cloudy
11:30 PM 75.2 °F - 64.4 °F 69% 30.09 in 6.2 mi East 8.1 mph - N/A   Mostly Cloudy